Location: Clermont
(50.2608°N, 4.3172°E)
Time: 07:01:50
(UTC+00:00)

Cosmos 489 Rocket - Pass Details

Date: 13 August 2020
Orbit: 953 x 983 km, 74.0° (Epoch: 26 September)

Event Time Altitude Azimuth Distance (km) Brightness Sun altitude
Rises 22:25:05 0° 335° (NNW) 3,687 9.0 -23.0°
Reaches altitude 10° 22:27:39 10° 336° (NNW) 2,732 8.0 -23.1°
Maximum altitude 22:34:00 86° 66° (ENE) 978 4.4 -23.5°
Enters shadow 22:35:47 50° 151° (SSE) 1,212 4.5 -23.6°
